Regional Weather Roundup
Issued by NWS

Home | Current Version | Previous Version | Graphics & Text | Print | Product List | Glossary On
Versions: 1 2 3 4 5 6 7 8 9 10 11 12 13 14 15 16 17 18 19 20 21 22 23 24 25 26 27 28 29 30 31 32 33 34 35 36 37 38 39 40 41 42 43 44 45 46 47 48 49 50
000
ASUS44 KMEG 202110
RWRTN
TENNESSEE HOURLY STATE WEATHER ROUNDUP
NATIONAL WEATHER SERVICE MEMPHIS TN
300 PM CST THU NOV 20 2014

TNZ002-004-019-021-049-052-054-088>092-202200-
WEST TENNESSEE

CITY           SKY/WX    TMP DP  RH WIND       PRES   REMARKS
MEMPHIS INTL   PTSUNNY   56  24  29 SE5       30.20F
NWS MEMPHIS      N/A     53 N/A N/A MISG        N/A
JACKSON        SUNNY     50  22  33 CALM      30.22F
DYERSBURG      SUNNY     46  18  31 NE3       30.23F
UNION CITY     SUNNY     43  21  42 CALM      30.22S
PARIS          SUNNY     45  19  36 NW6       30.22S
HUNTINGDON     SUNNY     45  17  32 NW6       30.23S
LEXINGTON      SUNNY     50  19  29 VRB3      30.21S
SAVANNAH       SUNNY     54  23  30 N6        30.21F
$$

TNZ008-025-027-028-033-062-065-066-202200-
NORTH MIDDLE TENNESSEE

CITY           SKY/WX    TMP DP  RH WIND       PRES   REMARKS
NASHVILLE      SUNNY     49  16  26 W7        30.21S
CLARKSVILLE    SUNNY     45  19  35 W6        30.21S
SMYRNA         SUNNY     48  20  33 NW6       30.21F
COOKEVILLE     SUNNY     46  23  39 VRB6      30.18R
CROSSVILLE     SUNNY     45  21  38 W15G22    30.15S
$$

TNZ061-075-076-078-094-096-097-202200-
SOUTH MIDDLE TENNESSEE

CITY           SKY/WX    TMP DP  RH WIND       PRES   REMARKS
FAYETTEVILLE   SUNNY     52  21  30 MISG      30.19S
TULLAHOMA      SUNNY     50  21  32 NW10      30.19S
WINCHESTER     SUNNY     52  27  37 W6        30.18S
MCMINNVILLE    SUNNY     48  27  43 W5        30.18S
COLUMBIA       SUNNY     52  21  30 NW5       30.19S
SHELBYVILLE    SUNNY     52  25  35 W9        30.20S
$$

TNZ017-018-042-046-047-202200-
NORTHEAST TENNESSEE

CITY           SKY/WX    TMP DP  RH WIND       PRES   REMARKS
TRI CITIES     MOSUNNY   48  24  39 W16G24    30.08S
ELIZABETHTON   PTCLDY    46  25  42 W12       30.08S
$$

TNZ012-013-036-069-073-074-202200-
CENTRAL EAST TENNESSEE

CITY           SKY/WX    TMP DP  RH WIND       PRES   REMARKS
KNOXVILLE      SUNNY     52  25  35 W18       30.12S
OAK RIDGE      SUNNY     52  20  28 W8G18     30.15R
GATLINBURG     CLEAR     52  27  37 W15       30.11S
MORRISTOWN     CLEAR     50  28  43 W14       30.10S
$$

TNZ083-085-099-202200-
SOUTHEAST TENNESSEE

CITY           SKY/WX    TMP DP  RH WIND       PRES   REMARKS
CHATTANOOGA    MOSUNNY   58  26  29 W8        30.16S
$$

SKY/WX REPORTED AS FAIR MEANS FEW OR NO CLOUDS BELOW
12 THOUSAND FEET.



USA.gov is the U.S. government's official web portal to all federal, state and local government web resources and services.